#timestamp,LO_Frequency,Hit,StdDev 
1665792015.1,286046999.5,P
1665792016.0,286046999.5,N
1665792035.8,286046998.9,P
1665792055.6,286046996.5,Y
1665792075.5,286046998.6,P
1665792095.3,286046998.7,N
1665792115.1,286047000.6,N
1665792135.9,286047001.0,N
1665792155.7,286047000.6,N
1665792175.6,286047000.8,N
1665792195.4,286046998.3,N
1665792215.2,286046998.5,N
1665792235.1,286047000.9,N
1665792236.0,286047000.9,N
1665792255.8,286047000.1,N
1665792275.7,286047000.3,N
1665792295.5,286047002.7,N
1665792315.3,286046999.9,N
1665792335.2,286046998.6,N
1665792355.0,286046998.6,N
1665792355.9,286046998.6,N
1665792375.8,286047000.9,N
1665792395.6,286046998.1,N
1665792415.4,286046999.1,N
1665792435.3,286046997.7,N
1665792455.1,286046999.5,N
1665792475.8,286046999.2,N
1665792495.7,286046999.0,N
1665792515.5,286046998.4,N
1665792535.4,286047001.1,N
1665792555.2,286046998.1,N
1665792575.1,286047000.6,N
1665792576.0,286047000.6,N
1665792595.8,286046998.1,N
1665792615.6,286047000.0,N
1665792635.5,286047002.6,N
1665792655.3,286047000.3,N
1665792675.1,286047000.1,N
1665792695.9,286047000.2,N
1665792715.7,286047000.7,N
1665792735.6,286046998.6,N
1665792755.4,286047001.2,N
1665792775.2,286047000.3,N
1665792795.1,286046999.8,N
1665792796.0,286046999.8,N
1665792815.8,286047002.3,N
1665792835.6,286047001.6,N
1665792855.5,286047004.0,Y
1665792875.3,286047002.8,P
1665792895.2,286047004.0,N
1665792915.9,286047002.2,N
1665792935.7,286047000.1,N
1665792955.6,286047000.6,N
1665792975.4,286047002.6,N
1665792995.2,286046999.7,N
1665793015.1,286047001.3,N
1665793016.0,286047001.3,N
1665793035.8,286047004.3,Y
1665793055.7,286047000.0,P
1665793075.5,286047002.5,P
1665793095.3,286047004.3,P
1665793115.2,286047001.6,N
1665793135.0,286047001.5,N
1665793135.9,286047001.5,N
1665793155.8,286047002.5,N
1665793175.6,286047002.4,N
1665793195.4,286047000.7,N
1665793215.3,286046998.3,N
1665793235.1,286046999.3,N
1665793255.8,286047001.0,N
1665793275.7,286046998.5,N
1665793295.5,286046999.9,N
1665793315.4,286046999.7,N
1665793335.2,286046999.1,N
1665793355.0,286047001.2,N
1665793355.9,286047001.2,N
1665793375.8,286047000.4,N
1665793395.6,286047002.7,N
1665793415.5,286046999.7,N
1665793435.3,286047002.4,N
1665793455.1,286047002.5,N
1665793475.9,286047002.0,N
1665793495.7,286047002.1,N
1665793515.6,286047004.0,N
1665793535.4,286047002.2,N
1665793555.2,286047002.1,N
1665793575.2,286047000.7,N
1665793595.0,286047000.8,N
1665793595.9,286047000.8,N
1665793615.8,286047000.9,N
1665793635.6,286046998.5,N
1665793655.4,286046999.3,N
1665793675.3,286047000.5,N
1665793695.1,286047000.7,N
1665793715.9,286046999.9,N
1665793735.7,286047002.3,N
1665793755.5,286047001.0,N
1665793775.4,286047000.6,N
1665793795.2,286046998.1,N
1665793815.0,286046998.8,N
1665793815.9,286046998.8,N
1665793835.8,286046998.1,N
1665793855.6,286047000.4,N
1665793875.5,286046999.7,N
1665793895.3,286047002.5,N
1665793915.1,286047001.8,N
1665793935.9,286047003.7,N
1665793955.7,286047004.1,N
1665793975.1,286047001.7,N
1665793995.9,286047003.7,N
1665794015.7,286047004.4,N
1665794035.5,286047003.7,N
1665794055.4,286047004.0,N
1665794075.2,286047002.0,N
1665794095.0,286047001.7,N
1665794095.9,286047001.7,N
1665794115.8,286047001.7,N
1665794135.6,286047003.7,N
1665794155.5,286047004.0,N
1665794175.3,286047001.7,N
1665794195.1,286047003.9,N
1665794215.9,286047002.5,N
1665794235.7,286047002.5,N
1665794255.5,286047001.4,N
1665794275.4,286047002.6,N
1665794295.2,286047002.5,N
1665794315.1,286047001.5,N
1665794316.0,286047001.5,N
1665794335.8,286047002.5,N
1665794355.6,286047004.4,N
1665794375.5,286047006.0,Y
1665794395.3,286047000.8,P
1665794415.1,286046996.9,P
1665794435.9,286046997.2,N
1665794455.7,286046999.5,N
1665794475.6,286046996.5,N
1665794495.4,286046998.9,N
1665794515.2,286046998.4,N
1665794535.1,286046998.7,N
1665794536.0,286046998.7,N
1665794555.8,286046999.1,N
1665794575.7,286046998.6,N
1665794595.5,286046998.7,N
1665794615.3,286046999.6,N
1665794635.2,286046999.1,N
1665794655.9,286047000.7,N
1665794675.7,286046998.5,N
1665794695.6,286047000.8,N
1665794715.5,286047000.3,N
1665794735.3,286047000.1,N
1665794755.1,286047000.6,N
1665794775.9,286046999.7,N
1665794795.7,286046999.8,N
1665794815.6,286047004.1,Y
1665794835.4,286047004.0,P
1665794855.2,286047000.9,N
1665794875.1,286047000.2,N
1665794876.0,286047000.2,N
1665794895.8,286046999.8,N
1665794915.7,286047000.5,N
1665794935.5,286046999.8,N
1665794955.3,286047001.0,N
1665794975.2,286046999.2,N
1665794995.0,286046998.5,N
1665794995.9,286046998.5,N
1665795015.7,286046998.8,N
1665795035.6,286047000.7,N
1665795055.4,286047000.6,N
1665795075.3,286047002.7,N
1665795095.1,286047001.0,N
1665795096.0,286047001.0,N
1665795115.8,286047000.0,N
1665795135.7,286047000.0,N
1665795155.5,286046999.0,N
1665795175.3,286046999.1,N
1665795195.2,286046998.4,N
1665795215.0,286046998.7,N
1665795215.9,286046998.7,N
1665795235.8,286047002.4,N
1665795255.6,286047000.0,N
1665795275.4,286047000.2,N
1665795295.3,286047000.0,N
1665795315.1,286047000.3,N
1665795335.8,286046999.3,N
1665795355.7,286046998.7,N
1665795375.5,286046999.1,N
1665795395.4,286046999.2,N
1665795415.2,286046997.1,N
1665795435.0,286046999.0,N
1665795435.9,286046999.0,N
1665795455.8,286047000.7,N
1665795475.6,286047000.1,N
1665795495.4,286047001.8,N
1665795515.3,286047001.6,N
1665795535.1,286047004.4,Y
1665795555.9,286047003.7,P
1665795575.7,286047004.3,N
1665795595.5,286047002.1,N
